| time (UTC) | temp C | wind direction | speed KPH | gust KPH | rain 1hr cm | rain 24hr cm | rain mn cm | humidity % | barometer mb |
| 20260504044553 | 4 | 205 | 0.0 | 0.0 | 0.15 | 2.13 | 0.18 | 96 | 975.0 |
| 20260504043055 | 4 | 166 | 0.0 | 0.0 | 0.13 | 2.11 | 0.15 | 96 | 975.1 |
| 20260504041547 | 4 | 210 | 0.0 | 0.0 | 0.13 | 2.08 | 0.13 | 95 | 975.8 |
| 20260504040046 | 4 | 31 | 0.0 | 0.0 | 0.08 | 2.03 | 0.08 | 95 | 976.6 |
| 20260504034550 | 4 | 204 | 0.0 | 0.0 | 0.05 | 2.01 | 0.05 | 95 | 977.3 |
| 20260504033039 | 3 | 117 | 0.0 | 0.0 | 0.05 | 1.98 | 0.03 | 95 | 977.9 |
| 20260504031540 | 4 | 61 | 0.0 | 0.0 | 0.03 | 1.96 | 0.00 | 95 | 978.7 |
| 20260504030035 | 4 | 183 | 0.0 | 0.0 | 0.03 | 1.96 | 0.00 | 94 | 979.8 |
| 20260504024531 | 4 | 196 | 0.0 | 0.0 | 0.00 | 1.93 | 1.93 | 94 | 980.6 |
| 20260504023029 | 5 | 156 | 0.0 | 0.0 | 0.00 | 1.93 | 1.93 | 93 | 981.1 |
| 20260504021526 | 5 | 194 | 0.0 | 0.0 | 0.00 | 1.93 | 1.93 | 94 | 982.2 |
| 20260504020031 | 5 | 169 | 0.0 | 0.0 | 0.03 | 1.93 | 1.93 | 94 | 982.8 |
| 20260504014522 | 6 | 256 | 0.0 | 0.0 | 0.05 | 1.93 | 1.93 | 95 | 983.4 |
| 20260504013015 | 6 | 280 | 0.0 | 0.0 | 0.05 | 1.93 | 1.93 | 96 | 984.1 |
| 20260504011514 | 5 | 129 | 0.0 | 0.0 | 0.10 | 1.93 | 1.93 | 97 | 984.2 |
| 20260504010011 | 5 | 150 | 0.0 | 0.0 | 0.13 | 1.93 | 1.93 | 96 | 984.7 |
| 20260504004514 | 5 | 80 | 0.0 | 0.0 | 0.15 | 1.91 | 1.91 | 96 | 985.2 |
| 20260504003007 | 5 | 112 | 0.0 | 0.0 | 0.18 | 1.85 | 1.85 | 96 | 985.6 |
| 20260504001515 | 5 | 54 | 0.0 | 0.0 | 0.23 | 1.83 | 1.83 | 96 | 986.0 |
| 20260504000003 | 5 | 53 | 0.0 | 0.0 | 0.38 | 1.80 | 1.80 | 96 | 986.8 |
| 20260503234502 | 5 | 64 | 0.0 | 0.0 | 0.46 | 1.75 | 1.75 | 96 | 987.8 |
| 20260503233059 | 5 | 86 | 0.0 | 0.0 | 0.53 | 1.68 | 1.68 | 96 | 988.7 |
| 20260503231558 | 4 | 50 | 0.0 | 0.0 | 0.61 | 1.63 | 1.63 | 96 | 989.0 |
| 20260503230058 | 4 | 9 | 0.0 | 0.0 | 0.51 | 1.42 | 1.42 | 96 | 990.6 |
| 20260503224600 | 4 | 93 | 0.0 | 0.0 | 0.51 | 1.30 | 1.30 | 96 | 991.3 |
| 20260503223048 | 4 | 70 | 0.0 | 0.0 | 0.48 | 1.14 | 1.14 | 96 | 992.7 |
| 20260503221557 | 4 | 51 | 0.0 | 0.0 | 0.46 | 1.02 | 1.02 | 96 | 993.7 |
| 20260503220040 | 3 | 106 | 0.0 | 0.0 | 0.43 | 0.89 | 0.89 | 96 | 994.5 |
| 20260503214541 | 3 | 61 | 0.0 | 0.0 | 0.43 | 0.76 | 0.76 | 96 | 994.9 |
| 20260503213042 | 3 | 27 | 0.0 | 0.0 | 0.51 | 0.66 | 0.66 | 96 | 995.7 |
| 20260503211535 | 3 | 116 | 0.0 | 0.0 | 0.43 | 0.56 | 0.56 | 96 | 996.1 |
| 20260503210034 | 3 | 48 | 0.0 | 0.0 | 0.33 | 0.46 | 0.46 | 96 | 996.2 |
| 20260503204532 | 3 | 108 | 0.0 | 0.0 | 0.23 | 0.33 | 0.33 | 96 | 997.1 |
| 20260503203034 | 3 | 26 | 0.0 | 0.0 | 0.05 | 0.15 | 0.15 | 96 | 997.7 |
| 20260503201526 | 3 | 43 | 0.0 | 0.0 | 0.05 | 0.13 | 0.13 | 95 | 998.8 |
| 20260503200026 | 3 | 88 | 0.0 | 0.0 | 0.05 | 0.13 | 0.13 | 94 | 999.5 |
| 20260503194522 | 5 | 66 | 0.0 | 0.0 | 0.05 | 0.10 | 0.10 | 95 | 1000.4 |
| 20260503193034 | 4 | 119 | 0.0 | 0.0 | 0.05 | 0.10 | 0.10 | 95 | 1001.1 |
| 20260503191538 | 5 | 33 | 0.0 | 0.0 | 0.05 | 0.08 | 0.08 | 94 | 1001.2 |
| 20260503190025 | 5 | 28 | 0.0 | 0.0 | 0.05 | 0.05 | 0.05 | 92 | 1001.9 |
| 20260503184514 | 5 | 90 | 0.0 | 0.0 | 0.05 | 0.05 | 0.05 | 92 | 1002.9 |
| 20260503183009 | 5 | 53 | 0.0 | 0.0 | 0.05 | 0.05 | 0.05 | 91 | 1004.3 |
| 20260503181506 | 6 | 42 | 0.0 | 0.0 | 0.05 | 0.05 | 0.05 | 88 | 1005.3 |
| 20260503180006 | 7 | 108 | 0.0 | 0.0 | 0.00 | 0.00 | 0.00 | 84 | 1006.1 |
| 20260503174504 | 7 | 65 | 0.0 | 0.0 | 0.00 | 0.00 | 0.00 | 80 | 1006.3 |
| 20260503173105 | 7 | 56 | 0.0 | 0.0 | 0.00 | 0.00 | 0.00 | 79 | 1007.6 |
| 20260503171556 | 7 | 86 | 0.0 | 0.0 | 0.00 | 0.00 | 0.00 | 77 | 1008.8 |
| 20260503170113 | 8 | 58 | 0.0 | 0.0 | 0.00 | 0.00 | 0.00 | 75 | 1008.9 |
| 20260503160104 | 8 | 88 | 0.0 | 0.0 | 0.00 | 0.00 | 0.00 | 75 | 1009.5 |
| 20260503081541 | 0 | 113 | 0.0 | 0.0 | 0.00 | 0.03 | 0.00 | 97 | 1015.7 |
| 20260503071531 | 0 | 113 | 0.0 | 0.0 | 0.00 | 0.03 | 0.00 | 97 | 1016.3 |